Tucson, Arizona, United States (85701)
Lat: 32.22N, Lon: 110.93W
Wx Zone: AZZ504
Local Info
Past Weather Observations for Sunday, September 14, 2014

NOTE: This archive is for the closest National Weather Service station to Tucson. Information may differ from the station used for current weather conditions.

Click here for Long-term Archive

Time Weather Temperature Dewpoint Humidity Pressure Winds Precip Visibility
23:58
Clear
82°F / 28°C 57°F / 14°C 42% 29.95 in
(1014 mb)
E 5.8 mph
(E 9 kph)
- 10SM
22:58
Clear
84°F / 29°C 57°F / 14°C 40% 29.95 in
(1014 mb)
E 6.9 mph
(E 11 kph)
- 10SM
21:58
Clear
82°F / 28°C 59°F / 15°C 45% 29.95 in
(1014 mb)
E 5.8 mph
(E 9 kph)
- 10SM
20:58
Clear
86°F / 30°C 59°F / 15°C 40% 29.92 in
(1013 mb)
ENE 9.2 mph
(ENE 15 kph)
- 10SM
19:58
Clear
88°F / 31°C 57°F / 14°C 35% 29.89 in
(1012 mb)
ENE 6.9 mph
(ENE 11 kph)
- 10SM
18:58
Clear
90°F / 32°C 57°F / 14°C 33% 29.86 in
(1011 mb)
ENE 8.1 mph
(ENE 13 kph)
- 10SM
17:58
Clear
93°F / 34°C 54°F / 12°C 26% 29.86 in
(1011 mb)
ESE 5.8 mph
(ESE 9 kph)
- 10SM
16:58
Clear
93°F / 34°C 54°F / 12°C 26% 29.86 in
(1011 mb)
NE 6.9 mph
(NE 11 kph)
- 10SM
15:58
Clear
93°F / 34°C 55°F / 13°C 28% 29.86 in
(1011 mb)
ENE 3.5 mph
(ENE 6 kph)
- 10SM
14:58
Clear
93°F / 34°C 54°F / 12°C 26% 29.86 in
(1011 mb)
ESE 9.2 mph
(ESE 15 kph)
- 10SM
13:58
Clear
91°F / 33°C 55°F / 13°C 30% 29.89 in
(1012 mb)
E 8.1 mph
(E 13 kph)
- 10SM
12:58
Clear
90°F / 32°C 55°F / 13°C 31% 29.92 in
(1013 mb)
ESE 10.4 mph
(ESE 17 kph)
- 10SM
11:58
Clear
88°F / 31°C 57°F / 14°C 35% 29.95 in
(1014 mb)
SE 15 mph
(SE 24 kph)
- 10SM
10:58
Clear
86°F / 30°C 55°F / 13°C 35% 29.95 in
(1014 mb)
SE 18.4 mph
(SE 30 kph)
- 10SM
09:58
Clear
84°F / 29°C 55°F / 13°C 37% 29.98 in
(1015 mb)
SE 23 mph
(SE 37 kph)
- 10SM
09:33
Clear
84°F / 29°C 55°F / 13°C 37% 29.98 in
(1015 mb)
E 15 mph
(E 24 kph)
- 10SM
08:58
Clear
82°F / 28°C 57°F / 14°C 42% 29.98 in
(1015 mb)
ESE 8.1 mph
(ESE 13 kph)
- 10SM
07:58
Clear
79°F / 26°C 55°F / 13°C 45% 29.95 in
(1014 mb)
ESE 8.1 mph
(ESE 13 kph)
- 10SM
06:58
Clear
73°F / 23°C 57°F / 14°C 57% 29.95 in
(1014 mb)
ESE 9.2 mph
(ESE 15 kph)
- 10SM
05:58
Clear
73°F / 23°C 57°F / 14°C 57% 29.95 in
(1014 mb)
ESE 8.1 mph
(ESE 13 kph)
- 10SM
04:58
Clear
73°F / 23°C 57°F / 14°C 57% 29.95 in
(1014 mb)
E 6.9 mph
(E 11 kph)
- 10SM
03:58
Clear
75°F / 24°C 57°F / 14°C 54% 29.95 in
(1014 mb)
E 10.4 mph
(E 17 kph)
- 10SM
02:58
Clear
75°F / 24°C 55°F / 13°C 50% 29.95 in
(1014 mb)
E 8.1 mph
(E 13 kph)
- 10SM
01:58
Clear
77°F / 25°C 55°F / 13°C 47% 29.95 in
(1014 mb)
E 8.1 mph
(E 13 kph)
- 10SM
00:58
Clear
77°F / 25°C 55°F / 13°C 47% 29.95 in
(1014 mb)
E 10.4 mph
(E 17 kph)
- 10SM
Time Weather Temperature Dewpoint Humidity Pressure Winds Precip Visibility


Weather for websites

WeatherForYou.com, LLC is not responsible for any damages or problems caused by this service. Current weather conditions are obtained from the closest station including government and personal stations which may have varying degrees of accuracy. Weather forecasts are derived from the NOAA NDFD. Like all things, this site belongs to Jesus Christ... He just trusts me to maintain it. If you have any questions or comments email webmaster@weatherforyou.com

Copyright © 2014, WeatherForYou.com LLC. All rights reserved.